Probability
0 0 0 0 0 0 0 0 0 0 0 0 0 0 0 0 0 0 0 0 0 0 0 0 0 0 0 0 0 0 0 0 0 0 0 0 0 0 0 0 0 0 0
0 0 0 0 0 0 0 0 0 0 0 0 0 0 0 0 0 0 0 0 0 0 0 0 0 0 0 0 0 0 0 0 0 0 0 0 0 0 0 0 0 0 0
0 0 0 0 0 0 0 0 0 0 0 0 0 0 0 0 0 0 0 0 0 0 0 0 0 0 1 1 0 0 0 0 0 0 0 0 0 0 0 0 0 0 0
0 0 0 0 0 0 0 0 0 0 0 0 0 0 0 0 0 0 0 0 1 1 1 0 1 1 1 1 1 1 0 0 0 0 0 0 0 0 0 0 0 0 0
0 0 0 0 0 0 0 0 0 0 0 0 0 0 0 0 0 0 0 0 1 1 1 1 1 1 1 1 1 1 1 1 1 0 0 0 0 0 0 0 0 0 0
0 0 0 0 0 0 0 0 0 0 0 0 0 0 0 0 0 0 0 0 0 1 1 0 1 1 0 0 1 1 0 1 1 0 0 0 0 0 0 0 0 0 0
0 0 0 0 0 0 0 0 0 0 0 0 0 0 0 0 0 0 0 0 0 0 0 0 0 0 0 0 1 0 0 0 0 0 0 0 0 0 0 0 0 0 0
0 0 0 0 0 0 0 0 0 0 0 0 0 0 0 0 0 0 0 0 0 0 0 0 0 0 0 0 0 0 0 0 0 0 0 0 0 0 0 0 0 0 0
0 0 0 0 0 0 0 0 0 0 0 0 0 0 0 0 0 0 0 0 0 0 0 0 0 0 0 0 0 0 0 0 0 0 0 0 0 0 0 0 0 0 0
0 0 0 0 0 0 0 0 0 0 0 0 0 0 0 0 0 0 0 0 0 0 0 0 0 0 0 0 0 1 1 1 0 0 0 1 0 0 0 0 0 0 0
0 0 0 0 0 0 0 0 0 0 0 0 0 0 0 0 0 0 0 0 0 0 0 0 0 0 0 0 0 1 1 1 0 0 1 1 0 0 0 0 0 0 0
0 0 0 0 0 0 0 0 0 0 0 0 0 0 0 0 0 0 0 0 0 0 0 0 0 0 0 0 0 0 1 1 1 1 1 1 0 0 0 0 0 0 0
0 0 0 0 0 0 0 0 0 0 0 0 0 0 0 0 0 0 0 0 0 0 0 0 0 0 0 0 1 1 1 2 2 3 2 1 0 0 0 0 0 0 0
0 0 0 0 0 0 0 0 0 0 0 0 0 0 0 0 0 0 0 0 0 0 0 0 0 0 0 0 1 2 2 2 3 3 3 1 0 0 0 0 0 0 0
0 0 0 0 0 0 0 0 0 0 0 0 0 0 0 0 0 0 0 0 0 0 0 0 0 0 0 0 1 1 1 1 1 3 3 2 1 0 0 1 0 0 0
0 0 0 0 0 0 0 0 0 0 0 0 0 0 0 0 0 0 0 0 0 0 0 0 0 0 0 0 0 0 0 0 0 1 2 2 1 0 0 0 0 0 0
0 0 0 0 0 0 0 0 0 0 0 0 0 0 0 0 0 0 0 0 0 0 0 0 0 0 0 0 0 0 1 1 1 0 1 2 2 1 0 0 0 0 1
0 0 0 0 0 0 0 0 0 0 0 0 0 0 0 0 0 0 0 0 0 0 0 0 0 0 0 0 0 0 1 2 1 0 0 1 1 1 0 0 1 1 2
0 0 0 0 0 0 0 0 0 0 0 0 0 0 0 0 0 0 0 0 0 0 0 0 0 0 0 0 0 0 2 2 1 0 0 0 0 0 0 1 2 3 3
0 0 0 0 0 0 0 0 0 0 0 0 0 0 0 0 0 0 0 0 0 0 0 0 0 0 0 0 0 0 1 1 1 0 0 0 0 0 0 1 2 3 3
0 0 0 0 0 0 0 0 0 0 0 0 0 0 0 0 0 0 0 0 0 0 0 0 0 0 0 0 0 0 0 0 0 0 0 1 1 0 0 0 1 2 3
0 0 0 0 0 0 0 0 0 0 0 0 0 0 0 0 0 0 0 0 0 0 0 0 0 0 0 0 0 0 0 0 0 0 0 1 1 1 1 1 0 1 2
0 0 0 0 0 0 0 0 0 0 0 0 0 0 0 0 0 0 0 0 0 0 0 0 0 0 0 0 0 0 0 0 0 0 0 1 1 1 2 1 0 0 1
0 0 0 0 0 0 0 0 0 0 0 0 0 0 0 0 0 0 0 0 0 0 0 0 0 0 0 0 0 0 0 0 0 0 0 0 0 1 1 1 1 0 0
0 0 0 0 0 0 0 0 0 0 0 0 0 0 0 0 0 0 0 0 0 0 0 0 0 0 0 0 0 0 0 0 0 0 0 0 0 0 0 1 1 1 1
0 0 0 0 0 0 0 0 0 0 0 0 0 0 0 0 0 0 0 0 0 0 0 0 0 0 0 0 0 0 0 0 0 0 0 0 0 0 1 1 2 2 4
Wind_Speed
6 7 8 7 7 7 7 7 7 7 6 6 5 5 4 4 3 3 2 2 2 2 2 3 3 3 3 3 3 3 3 4 4 4 3 3 3 3 3 3 2 2 6
7 8 9 7 7 7 7 7 6 6 6 5 4 4 3 3 3 2 2 1 2 2 2 2 2 3 3 3 3 3 3 4 4 4 3 1 2 2 2 3 4 4 4
8 8 9 7 7 7 6 6 6 5 5 4 4 3 3 3 2 2 2 2 2 2 2 3 2 2 3 3 3 3 3 3 4 4 5 3 2 2 2 2 3 3 3
8 7 8 8 7 7 6 6 6 5 5 4 4 3 3 3 3 3 3 3 3 3 3 3 3 3 3 3 3 3 3 3 3 5 5 2 1 4 2 1 2 2 3
8 7 9 7 7 6 6 6 6 5 5 5 4 4 3 3 3 3 3 4 4 4 4 4 4 4 3 3 3 3 4 3 4 7 3 3 2 3 2 1 1 1 2
8 8 9 6 6 6 6 6 6 5 5 5 5 5 4 4 4 4 4 4 5 5 5 4 4 4 4 4 3 3 4 4 7 3 3 3 2 3 2 1 1 1 1
8 7 9 7 6 6 6 6 6 6 6 5 5 5 5 5 4 4 5 5 6 6 6 5 4 4 4 4 4 4 4 5 7 4 3 3 2 3 2 1 1 0 1
7 7 8 8 6 6 6 6 6 6 5 5 5 5 5 5 5 5 5 6 6 6 6 5 5 4 5 5 5 5 5 7 6 5 3 3 3 2 2 1 1 1 0
6 5 5 7 7 6 5 5 5 5 5 5 5 5 5 5 5 5 5 5 6 6 6 6 5 5 5 5 5 5 6 5 8 5 5 2 2 3 2 2 2 2 1
6 5 4 4 3 4 5 6 4 5 5 5 4 5 4 2 1 2 4 4 6 6 6 6 6 5 5 5 5 6 6 7 8 5 4 1 2 3 3 2 2 2 2
5 4 4 3 2 2 2 4 2 3 3 1 1 2 4 4 4 2 6 6 5 6 5 5 5 5 6 6 5 5 7 6 4 5 4 4 2 4 3 2 3 4 3
6 5 3 2 2 1 1 1 0 1 1 2 4 4 4 4 4 5 2 1 3 4 4 3 5 6 8 4 5 6 6 6 5 4 1 3 3 3 2 3 3 4 4
5 4 3 2 1 1 0 1 1 2 1 2 3 3 3 4 3 3 3 1 2 3 4 2 5 4 4 3 4 4 4 5 3 3 1 2 3 3 3 3 3 4 5
4 3 2 2 1 1 1 1 1 1 2 3 3 4 4 3 4 4 3 4 3 3 3 4 3 4 5 4 5 5 5 4 3 2 1 2 2 3 3 3 3 4 5
4 4 3 2 1 0 0 1 1 2 2 2 3 3 4 4 4 4 3 3 4 4 3 4 4 4 4 5 4 5 5 4 4 4 2 4 2 3 3 3 4 4 4
5 4 3 3 2 1 1 1 1 2 1 3 3 4 5 4 4 4 4 3 4 4 4 5 4 4 4 3 4 4 4 4 4 4 3 4 4 3 2 2 3 4 5
5 4 4 3 2 2 0 1 1 1 2 2 3 4 4 4 4 4 4 4 4 4 5 4 5 4 4 3 4 4 3 4 4 4 3 3 4 5 4 2 2 4 4
5 5 5 4 3 2 1 1 0 1 2 2 2 3 5 5 5 4 4 4 4 4 4 4 4 4 3 3 3 2 2 2 4 4 3 3 2 3 5 4 4 5 5
5 5 5 5 4 3 3 2 0 0 1 2 2 3 4 5 6 4 4 4 5 4 4 4 3 4 3 2 2 2 2 2 2 3 3 3 3 3 2 5 5 6 6
6 6 6 5 4 4 3 2 1 1 0 1 2 3 4 4 5 5 3 5 5 4 4 4 4 3 3 3 3 1 0 1 2 1 2 2 2 3 3 3 4 6 6
7 7 6 7 6 5 3 2 1 1 1 1 1 3 3 4 4 4 4 5 5 4 5 5 4 3 2 2 2 1 2 1 0 0 1 1 2 2 2 2 2 3 5
8 8 8 7 6 6 3 2 1 1 1 1 1 1 3 4 4 4 5 4 4 4 5 5 4 3 2 2 2 2 2 2 1 1 0 0 1 2 2 2 3 3 3
8 9 7 7 7 6 5 2 2 1 2 2 1 1 2 3 4 4 5 5 4 4 4 5 5 4 3 2 2 2 2 1 1 2 1 1 1 1 2 1 2 3 3
7 7 8 7 7 7 6 4 3 2 2 2 2 1 1 2 3 3 4 4 4 4 4 4 4 3 4 2 1 2 2 2 1 1 1 1 1 1 1 2 1 2 3
5 6 7 7 7 7 6 5 5 3 2 1 2 2 2 1 2 3 3 4 4 4 4 4 4 4 3 3 2 2 2 1 2 1 1 2 2 1 1 1 2 1 2
4 6 6 7 7 7 7 7 6 4 4 3 3 2 2 1 2 2 3 3 3 3 4 4 3 3 3 3 2 2 2 2 2 1 0 1 1 1 1 1 1 2 2
Wind_Direction
131 123 116 123 119 114 111 110 112 109 104 101 100 102 105 105 97 83 68 66 65 54 42 45 41 37 37 45 41 36 35 32 35 37 37 40 42 42 43 28 330 62 54
125 120 116 117 115 112 111 112 111 108 103 99 93 87 83 81 78 72 51 31 30 28 18 20 25 15 10 24 28 24 22 18 19 16 356 253 113 42 28 18 355 33 43
124 122 125 112 110 108 105 105 103 100 96 90 83 78 66 54 44 33 21 6 358 353 348 349 356 352 349 357 2 4 7 6 4 354 288 263 126 98 21 19 17 32 40
120 117 107 108 105 102 99 95 94 89 81 71 62 57 46 32 17 358 351 347 342 335 331 332 327 330 335 339 344 346 347 347 349 303 270 342 350 83 14 10 12 28 42
116 112 105 109 104 98 93 88 84 78 70 61 52 44 36 19 1 347 337 330 326 321 319 314 311 316 323 326 328 330 327 332 317 276 327 335 331 64 359 357 348 11 44
119 113 106 107 101 95 90 84 77 69 62 53 44 35 27 14 3 351 338 329 323 315 306 302 296 300 305 306 312 315 311 321 282 290 313 302 312 66 337 336 341 349 26
121 115 110 105 102 94 86 80 73 66 58 49 42 35 26 14 360 344 331 323 319 314 308 301 289 286 288 290 292 296 297 303 284 291 284 289 12 20 318 326 301 308 353
119 116 114 116 101 89 82 79 71 62 53 43 37 30 21 11 1 349 336 327 322 318 313 304 290 283 282 282 282 282 285 289 273 281 277 279 42 333 290 281 267 267 286
125 123 118 122 127 117 91 75 68 59 46 39 29 21 14 9 359 349 339 333 325 321 312 304 297 284 280 277 277 280 281 288 281 271 274 273 69 300 273 249 229 233 231
138 132 123 111 99 111 120 97 68 56 46 39 33 22 359 302 289 324 306 357 334 327 320 310 305 296 281 275 275 276 276 262 255 262 263 89 61 289 271 250 213 210 207
156 154 147 141 116 96 75 99 121 110 71 299 131 73 291 318 348 307 20 360 341 337 329 319 309 300 280 242 242 267 261 254 252 265 268 52 325 285 266 251 215 202 199
167 165 161 165 151 144 67 99 19 351 47 342 356 351 335 347 345 331 77 346 338 327 290 290 293 263 256 249 206 217 244 246 247 249 222 71 290 281 257 242 222 201 196
162 161 172 181 178 229 147 334 353 347 355 339 353 342 328 326 319 321 325 279 293 292 300 284 258 264 271 280 286 259 258 264 250 253 178 116 268 267 248 241 215 199 201
179 175 180 198 202 236 326 346 295 328 345 352 353 343 337 338 326 341 323 335 323 323 328 311 304 295 288 273 262 264 246 246 250 251 167 145 253 240 225 225 208 197 205
182 190 184 211 250 200 34 305 302 359 345 10 2 341 343 332 336 335 329 332 321 325 313 307 301 308 295 286 277 272 269 251 244 244 190 161 226 230 215 215 199 191 193
193 194 174 193 205 205 201 259 4 5 21 355 5 352 346 345 340 333 332 337 334 330 328 310 309 301 285 287 282 275 267 260 245 232 233 177 177 194 186 193 188 183 181
193 191 174 181 182 195 170 24 6 348 360 3 6 352 356 355 344 341 338 340 341 333 323 311 314 299 287 282 269 264 261 265 260 241 231 220 182 164 160 171 184 176 184
197 192 174 175 183 170 154 168 52 8 8 1 2 354 357 359 353 349 342 341 338 329 324 318 307 301 289 284 277 265 254 249 257 257 234 214 203 188 164 157 180 177 187
201 199 183 175 176 160 149 155 149 41 10 353 1 6 358 357 349 353 351 339 337 334 333 322 328 314 306 296 272 254 256 252 256 248 232 212 189 191 178 148 168 175 180
199 200 186 168 176 155 164 180 164 212 270 350 358 14 358 347 350 346 340 345 344 343 341 337 333 312 308 300 278 258 246 247 245 245 245 214 193 179 182 163 171 170 170
193 196 187 181 172 168 173 202 216 230 263 304 354 5 342 341 345 347 334 350 343 349 345 345 332 313 314 315 282 221 176 181 175 135 254 237 177 168 185 170 188 175 166
194 196 193 188 178 181 183 197 214 293 289 338 305 301 328 340 345 339 344 343 352 342 347 350 341 324 328 325 299 267 212 177 171 108 96 208 189 157 172 177 192 176 172
200 200 198 189 181 184 178 177 183 194 231 223 248 294 335 337 340 341 345 343 347 345 353 344 342 338 328 336 348 317 294 261 146 130 94 91 80 124 144 153 177 170 164
202 200 202 191 190 182 181 197 214 249 285 308 305 317 296 308 327 333 332 334 342 349 348 344 357 331 322 331 350 327 322 341 284 162 141 109 83 85 114 129 136 134 148
195 197 202 191 193 187 197 199 222 238 266 277 274 275 285 307 312 319 325 329 337 342 351 349 347 342 335 333 330 320 318 296 283 260 157 144 115 76 64 92 114 105 112
186 192 196 194 196 191 201 209 221 235 244 253 258 273 277 278 294 310 311 315 323 337 345 342 341 344 340 342 327 333 323 314 315 296 188 141 113 83 77 64 73 86 94